Location: Melbourne
(37.8170°S, 144.9670°E)
Time: 06:09:14
(UTC+11:00)

CZ-3 R/B - Visible Passes

Search period start: 01 November 2014 00:00
Search period end: 11 November 2014 00:00
Orbit: 203 x 14713 km, 28.5° (Epoch: 29 October)

Date Brightness Start Highest point End Pass type
(mag) Time Alt. Az. Time Alt. Az. Time Alt. Az.
01 Nov 5.8 02:28:19 10° W 03:08:18 51° NNW 05:19:30 10° NNE visible
01 Nov 3.2 20:08:52 10° NW 20:14:40 43° NNE 20:40:23 10° E visible
02 Nov 5.4 00:49:52 10° W 01:14:21 61° NNW 03:27:01 10° NE visible
02 Nov 4.7 23:12:34 10° W 23:26:53 65° N 01:14:21 10° ENE visible
03 Nov 6.2 04:04:00 10° W 04:55:27 34° NW 06:48:55 10° N visible
03 Nov 3.8 21:35:42 10° WNW 21:44:18 61° NNE 22:41:54 10° ENE visible
04 Nov 5.8 02:20:04 10° W 02:57:46 48° NNW 05:06:54 10° NNE visible
04 Nov 3.1 19:59:04 10° NW 20:04:28 43° NNE 20:27:36 10° E visible
05 Nov 5.4 00:39:33 10° W 01:02:26 58° NNW 03:10:30 10° NE visible
05 Nov 6.6 05:50:47 10° W 06:35:36 17° WNW 07:48:55 10° NNW visible
05 Nov 4.6 23:00:16 10° W 23:13:33 63° N 00:52:24 10° ENE visible
06 Nov 6.2 03:50:58 10° W 04:39:17 33° NW 06:31:46 10° N visible
06 Nov 3.6 21:21:24 10° WNW 21:29:18 60° N 22:19:03 10° ENE visible
07 Nov 5.7 02:04:59 10° W 02:39:36 47° NNW 04:46:31 10° NNE visible
08 Nov 5.3 00:22:33 10° W 00:43:14 56° NNW 02:44:50 10° NE visible
08 Nov 6.6 05:32:09 10° W 06:15:12 17° NW 07:27:54 10° NNW visible
08 Nov 4.4 22:41:21 10° W 22:53:16 61° N 00:20:02 10° ENE visible
09 Nov 6.1 03:30:45 10° W 04:15:32 32° NW 06:07:47 10° N visible
09 Nov 3.4 21:00:34 10° WNW 21:07:36 57° N 21:48:00 10° ENE visible
10 Nov 5.6 01:43:07 10° W 02:13:58 45° NNW 04:17:55 10° NNE visible
10 Nov 5.1 23:58:55 10° W 00:00:15 16° W 00:00:00 15° W visible
